Location: Arthez
(43.0833°N, 0.2500°W)
Time: 22:36:38
(UTC+00:00)

deb Kosmos-970 - Pass Details

Date: 23 August 2022
Orbit: 900 x 1112 km, 65.8° (Epoch: 28 September)

Event Time Altitude Azimuth Distance (km) Brightness Sun altitude
Rises 22:09:05 0° 329° (NNW) 3,943 ? -29.8°
Reaches altitude 10° 22:11:56 10° 335° (NNW) 2,972 ? -30.0°
Maximum altitude 22:18:43 47° 49° (NE) 1,403 ? -30.7°
Enters shadow 22:19:21 46° 64° (ENE) 1,420 ? -30.7°
